Tuscaloosa, AL

12:17 PM CDT on April 24, 2017 (GMT -0500)
Tuscaloosa Municipal

Weather History for KTCL - April, 2014

Change the Weather History Date:

Thursday, April 10, 2014

  Actual Average Record
Temperature  
Mean Temperature 59 °F 62 °F  
Max Temperature 77 °F 75 °F 87 °F (2013)
Min Temperature 41 °F 48 °F 30 °F (1996)
Degree Days  
Heating Degree Days 6 5  
Month to date heating degree days 49 58  
Since 1 July heating degree days 2706 2442  
Growing Degree Days 10 (Base 50)    
Moisture  
Dew Point 42 °F    
Average Humidity 62    
Maximum Humidity 96    
Minimum Humidity 27    
Precipitation  
Precipitation 0.00 in 0.15 in 3.12 in (1969)
Month to date precipitation 4.14 1.44  
Year to date precipitation 17.14 16.65  
Sea Level Pressure  
Sea Level Pressure 30.18 in    
Wind  
Wind Speed 7 mph (SSW)    
Max Wind Speed 16 mph    
Max Gust Speed 21 mph    
Visibility 10 miles    
Events      
T = Trace of Precipitation, MM = Missing Value Source: NWS Daily Summary

Daily Weather History Graph

Daily Weather History Graph

Search for Another Location

Airport or City:

Trip Planner

Search our weather history database for the weather conditions in past years. The results will help you decide how hot, cold, wet, or windy it might be!

Date:

Astronomy

Apr. 10, 2014 Rise Set
Actual Time 6:26 AM CDT 7:17 PM CDT
Civil Twilight 6:01 AM CDT 7:42 PM CDT
Nautical Twilight 5:31 AM CDT 8:12 PM CDT
Astronomical Twilight 5:00 AM CDT 8:43 PM CDT
Moon 3:13 PM CDT (4/10) 3:35 AM CDT (4/10)
Length of Visible Light 13h 41m
Length of Day
12h 50m
Waxing Gibbous, 80% of the Moon is Illuminated
Apr 10
Waxing Gibbous
Apr 15
Full
Apr 22
Last Quarter
Apr 29
New
May 6
First Quarter

Hourly Weather History & Observations

Time (CDT) Temp. Windchill Dew Point Humidity Pressure Visibility Wind Dir Wind Speed Gust Speed Precip Events Conditions
12:53 AM 46.9 °F - 44.1 °F 90% 30.20 in 10.0 mi West 3.5 mph - N/A   Clear
1:53 AM 45.0 °F - 43.0 °F 93% 30.19 in 9.0 mi Calm Calm - N/A   Clear
2:53 AM 45.0 °F - 43.0 °F 93% 30.18 in 9.0 mi Calm Calm - N/A   Clear
3:53 AM 43.0 °F 41.3 °F 41.0 °F 93% 30.19 in 10.0 mi NE 3.5 mph - N/A   Clear
4:53 AM 44.1 °F - 41.0 °F 89% 30.19 in 10.0 mi Calm Calm - N/A   Clear
5:53 AM 42.1 °F - 39.0 °F 89% 30.22 in 9.0 mi Calm Calm - N/A   Clear
6:53 AM 42.1 °F - 39.9 °F 92% 30.23 in 8.0 mi Calm Calm - N/A   Clear
7:53 AM 48.9 °F - 45.0 °F 86% 30.25 in 8.0 mi Calm Calm - N/A   Clear
9:53 AM 64.0 °F - 44.1 °F 48% 30.25 in 10.0 mi South 8.1 mph - N/A   Clear
10:53 AM 69.1 °F - 43.0 °F 39% 30.25 in 10.0 mi South 10.4 mph - N/A   Clear
11:53 AM 72.0 °F - 41.0 °F 33% 30.22 in 10.0 mi SSW 15.0 mph - N/A   Clear
12:53 PM 73.0 °F - 41.0 °F 31% 30.20 in 10.0 mi SSW 13.8 mph - N/A   Clear
1:53 PM 75.0 °F - 42.1 °F 31% 30.18 in 10.0 mi SSW 10.4 mph - N/A   Clear
2:53 PM 75.9 °F - 41.0 °F 29% 30.16 in 10.0 mi SSW 11.5 mph - N/A   Clear
3:53 PM 77.0 °F - 41.0 °F 28% 30.13 in 10.0 mi SSW 10.4 mph 19.6 mph N/A   Clear
4:53 PM 75.9 °F - 39.9 °F 27% 30.12 in 10.0 mi South 8.1 mph - N/A   Clear
5:53 PM 75.0 °F - 42.1 °F 31% 30.11 in 10.0 mi South 8.1 mph - N/A   Clear
6:53 PM 71.1 °F - 39.9 °F 32% 30.11 in 10.0 mi South 8.1 mph - N/A   Clear
7:53 PM 68.0 °F - 42.1 °F 39% 30.12 in 10.0 mi South 6.9 mph - N/A   Clear
8:53 PM 66.9 °F - 42.1 °F 40% 30.13 in 10.0 mi South 8.1 mph - N/A   Clear
9:53 PM 64.0 °F - 44.1 °F 48% 30.14 in 10.0 mi South 9.2 mph - N/A   Clear
10:53 PM 64.0 °F - 45.0 °F 50% 30.17 in 10.0 mi SSW 11.5 mph - N/A   Clear
11:53 PM 62.1 °F - 46.0 °F 56% 30.17 in 10.0 mi South 10.4 mph - N/A   Clear